#timestamp,LO_Frequency,Hit,StdDev 
1502830815.6,286047000.6,N,0.3
1502830835.4,286047002.8,Y,0.0
1502830855.3,286047001.2,P,0.3
1502830875.1,286047000.2,N,0.4
1502830895.9,286046999.9,N,0.5
1502830915.7,286047001.0,N,0.5
1502830935.5,286047000.0,N,0.5
1502830955.4,286047001.1,N,0.5
1502830975.2,286046998.3,Y,0.0
1502830995.1,286046999.4,P,0.6
1502830996.0,286046999.4,N,0.5
1502831015.8,286046998.9,N,0.6
1502831035.6,286046998.6,N,0.7
1502831055.5,286046998.3,N,0.7
1502831075.3,286046998.6,N,0.7
1502831095.2,286046998.6,N,0.7
1502831115.9,286047001.0,N,0.9
1502831135.7,286046998.3,N,0.9
1502831155.6,286047001.2,N,1.0
1502831175.4,286046998.8,N,1.0
1502831195.2,286047001.2,N,1.1
1502831215.1,286047000.4,N,1.1
1502831216.0,286047000.4,N,1.1
1502831235.8,286047001.0,N,1.1
1502831255.7,286047000.8,N,1.1
1502831275.5,286047000.8,N,1.1
1502831295.3,286047000.9,N,1.1
1502831315.2,286047000.8,N,1.1
1502831335.0,286046998.7,N,1.1
1502831335.9,286046998.7,N,1.1
1502831355.8,286047000.9,N,1.1
1502831375.6,286047000.8,N,1.1
1502831395.4,286046998.2,N,1.1
1502831415.3,286046998.5,N,1.1
1502831435.1,286047000.3,N,1.1
1502831455.9,286047000.4,N,1.1
1502831475.7,286047000.2,N,1.1
1502831495.5,286047000.3,N,1.1
1502831515.4,286047000.8,N,1.1
1502831535.2,286046998.2,N,1.1
1502831555.0,286047000.8,N,1.1
1502831556.0,286047000.8,N,1.1
1502831575.8,286047001.2,N,1.1
1502831595.6,286046998.4,N,1.1
1502831615.5,286047001.2,N,1.1
1502831635.3,286047000.8,N,1.1
1502831655.1,286047000.6,N,1.0
1502831675.9,286047001.0,N,1.0
1502831695.7,286047000.8,N,1.0
1502831715.6,286047001.1,N,1.0
1502831735.4,286046999.8,N,1.0
1502831755.2,286047000.4,N,1.0
1502831775.1,286047002.7,N,1.1
1502831776.0,286047002.7,N,1.1
1502831795.8,286047002.4,N,1.2
1502831815.7,286046999.9,N,1.2
1502831835.5,286046999.9,N,1.2
1502831855.3,286046999.8,N,1.2
1502831875.2,286046999.7,N,1.2
1502831895.0,286047002.4,N,1.2
1502831895.9,286047002.4,N,1.2
1502831915.7,286047002.3,N,1.3
1502831935.6,286047000.2,N,1.2
1502831955.4,286047000.5,N,1.1
1502831975.3,286046999.9,N,1.1
1502831995.1,286047000.5,N,1.1
1502831996.0,286047000.5,N,1.1
1502832015.8,286047000.4,N,1.1
1502832035.7,286047000.6,N,1.1
1502832055.5,286047000.7,N,1.0
1502832075.3,286047000.1,N,1.0
1502832095.2,286047000.4,N,1.0
1502832115.0,286047000.9,N,1.0
1502832115.9,286047000.9,N,0.9
1502832135.8,286047000.9,N,0.9
1502832155.6,286047000.9,N,0.9
1502832175.5,286047002.7,N,1.0
1502832195.3,286047000.6,N,1.0
1502832215.1,286047000.5,N,1.0
1502832235.9,286047000.9,N,1.0
1502832255.7,286047000.6,N,0.9
1502832275.5,286047000.0,N,1.0
1502832295.4,286046999.8,N,0.9
1502832315.2,286047000.3,N,0.8
1502832335.1,286047002.1,N,0.8
1502832336.0,286047002.1,N,0.9
1502832355.8,286047001.6,N,0.8
1502832375.6,286047002.6,Y,0.0
1502832395.5,286047000.1,P,0.4
1502832415.3,286047000.3,N,0.3
1502832435.2,286047000.8,N,0.3
1502832455.9,286047000.7,N,0.3
1502832475.7,286046999.9,N,0.4
1502832495.6,286046998.1,Y,0.0
1502832515.4,286047000.7,P,0.1
1502832535.2,286047000.8,P,0.2
1502832555.1,286046998.4,P,1.0
1502832556.0,286046998.4,N,1.1
1502832575.8,286047001.0,N,1.1
1502832595.7,286046998.5,N,1.1
1502832615.5,286047001.1,N,1.2
1502832635.3,286047000.8,N,1.1
1502832655.2,286047000.7,N,1.1
1502832675.0,286047000.3,N,1.0
1502832675.9,286047000.3,N,1.0
1502832695.7,286047001.1,N,1.0
1502832715.6,286047001.2,N,1.0
1502832735.4,286046998.9,N,1.0
1502832755.3,286046998.6,N,1.1
1502832775.1,286682706.2,Y,0.0
1502832795.8,286047000.5,P,0.2
1502832815.7,286047001.0,P,0.4
1502832835.5,286047000.1,N,0.4
1502832855.4,286047000.0,N,0.4
1502832875.2,286047000.0,N,0.4
1502832895.0,286047000.1,N,0.3
1502832895.9,286047000.1,N,0.3
1502832915.8,286047000.5,N,0.3
1502832935.6,286047000.3,N,0.3
1502832955.5,286046999.9,N,0.3
1502832975.3,286047000.8,N,0.3
1502832995.1,286047001.1,Y,0.0
1502833015.9,286047000.5,P,0.1
1502833035.7,286047000.9,P,0.3
1502833055.6,286047000.5,N,0.2
1502833075.4,286046998.1,Y,0.0
1502833095.2,286047001.2,P,0.3
1502833115.1,286047000.8,N,0.3
1502833116.0,286047000.8,N,0.2
1502833135.8,286046998.2,Y,0.0
1502833155.7,286046999.3,P,0.8
1502833175.5,286046999.5,N,0.7
1502833195.3,286046997.0,P,1.4
1502833215.2,286046996.6,N,1.6
1502833235.0,286046996.6,N,1.7
1502833235.9,286046996.6,N,1.6
1502833255.8,286046996.8,N,1.6
1502833275.6,286046996.5,N,1.6
1502833295.4,286046996.5,N,1.5
1502833315.3,286046997.4,N,1.5
1502833335.1,286046997.4,N,1.4
1502833355.9,286046997.2,N,1.3
1502833375.7,286046997.7,N,1.3
1502833395.5,286046994.9,Y,0.0
1502833415.4,286046998.6,P,0.5
1502833435.2,286046998.3,P,0.4
1502833455.1,286046999.0,N,0.5
1502833456.0,286046999.0,N,0.5
1502833475.8,286046996.5,Y,0.0
1502833495.6,286047000.8,P,1.2
1502833515.5,286047001.2,N,1.2
1502833535.3,286046999.0,N,1.1
1502833555.1,286046999.4,N,1.0
1502833575.9,286046999.4,N,1.0
1502833595.7,286046999.5,N,0.9
1502833615.6,286046997.0,Y,0.0
1502833635.4,286046999.2,P,0.2
1502833655.2,286046997.6,P,0.9
1502833675.1,286046997.8,N,0.9
1502833676.0,286046997.8,N,0.9
1502833695.8,286046997.7,N,0.8
1502833715.7,286046995.1,Y,0.0
1502833735.5,286046997.0,P,0.6
1502833755.3,286046999.4,N,1.0
1502833775.2,286046999.4,N,1.0
1502833795.0,286046998.9,N,0.9
1502833795.9,286046998.9,N,0.8
1502833815.8,286046999.0,N,0.8
1502833835.6,286046999.2,N,0.7
1502833855.4,286046999.5,N,0.7
1502833875.3,286046996.7,Y,0.0
1502833895.1,286046996.7,P,1.1
1502833915.9,286046996.5,P,1.1
1502833935.7,286046997.1,N,0.9
1502833955.5,286046997.7,N,0.8
1502833975.4,286046997.8,N,0.8
1502833995.2,286046997.2,Y,0.0
1502834015.1,286046998.1,P,0.3
1502834016.0,286046998.1,P,0.3
1502834035.8,286046998.1,P,0.3
1502834055.6,286047000.4,N,1.0
1502834075.5,286047000.8,N,1.3
1502834095.3,286047001.1,N,1.4
1502834115.2,286047000.7,N,1.4
1502834135.9,286047000.7,N,1.4
1502834155.7,286047000.9,N,1.4
1502834175.6,286047000.3,N,1.4
1502834195.4,286047000.5,N,1.3
1502834215.2,286047000.9,N,1.3
1502834235.1,286047000.8,N,1.3
1502834236.0,286047000.8,N,1.3
1502834255.8,286046998.6,N,1.3
1502834275.7,286046998.3,N,1.3
1502834295.5,286046996.5,N,1.5
1502834315.3,286046997.4,N,1.5
1502834335.2,286046996.8,N,1.6
1502834355.0,286046996.8,N,1.6
1502834355.9,286046996.8,N,1.7
1502834375.7,286046996.7,N,1.7
1502834395.6,286046997.5,N,1.7
